Retour au catalogue

FENGYUN 1C DEB

ActifPO
NORAD 31937·DEBRIS·🇨🇳 China

Lancé May 10, 1999 depuis Taiyuan Satellite Launch Center

Loading…

Prochains Passages (prochaines 24 heures)

TLE

VieillissantSource: Space-Track

Époque: Sep 5, 2026, 04:04 UTC

1 31937U 99025CMN 26248.16983616  .00005335  00000-0  55435-3 0  9991
2 31937  99.2700  23.5153 0153036 184.5686 175.4136 14.82146439700115

Suivez FENGYUN 1C DEB en temps réel avec AllMySat

Download on the App Store